Airfield :
LOGIN :

Register | Disclaimer

   EN    FR    IT 

 










Legend :    VFR   Marginal VFR   IFR   Intensive IFR   Very Intensive IFR
Visi :
Ceiling :
>= 8 km
>= 3000ft
5 to 8 km
1000 to 3000 ft
1500m to 5 km
500 to 1000 ft
800 to 1500m
200 to 500 ft
< 800m
< 200 ft
Symbols :   Thunderstorms  Fog  Heavy snow  Heavy precipitations  Wind > 20 kt
SIGMETs :     Misc.  Thunderstorms  Icing  Turbulence  Mountain Waves  Volcanic Ashes







- Airport Elevation : 538 ft
- IATA code : TNF
- Download approach charts


LFPN - Toussus Le Noble

CURRENT METAR :
  • 210300Z AUTO VRB02KT 9999 FEW036 SCT130 12/10 Q1014

EXPIRED METARs :
  • 210230Z AUTO 03003KT 330V060 9999 OVC034 12/10 Q1014
  • 210200Z AUTO 04003KT 9999 FEW034 12/10 Q1015
  • 210130Z AUTO 02003KT CAVOK 12/10 Q1015
  • 210100Z AUTO 02004KT CAVOK 12/10 Q1015
  • 210030Z AUTO 03003KT CAVOK 13/10 Q1015

Expired Forecast.
ATIS : +33 1 39 56 54 70
No reported NOTAMs for that airfield.



MET'MAP, your aeronautical weather chart ! - Copyright ORBIFLY December 2007 - Disclaimer

ORBIFLY MET'MAP TEAM :

Programming & Development : Alexandra Zaïnal
Concept & Development : Baudouin d'Aumeries
Co-Development & Prog : Marc-Olivier Méhu
Technical & hardware support : Manuel Goepfert

Contact : metmap@orbifly.com




SOURCES & CREDITS :

   NOAA